SCP
0 0 0 0 0 0 0 0 0 0 0 0 0 -0 0 0 0 0 0 0 0 0 0 0 0 0 0 0 0 0 0 0 0 0 0 0 0 0 0 0 0 0 0 0
0 0 0 0 0 0 0 0 0 0 0 0 0 0 0 0 0 0 0 0 0 0 0 0 0 0 0 0 0 0 0 0 0 0 0 0 0 0 0 0 0 0 0 0
0 0 0 0 0 0 0 0 0 0 0 0 0 0 0 0 0 0 0 0 0 0 0 0 0 0 0 0 0 0 0 0 0 0 0 0 0 0 0 0 0 0 0 0
0 0 0 0 0 0 0 0 0 0 0 0 0 0 0 0 0 0 0 0 0 0 0 0 0 0 0 0 0 0 0 0 0 0 0 0 0 0 0 0 0 0 0 0
0 0 0 0 0 0 0 0 0 0 0 0 0 0 0 0 0 0 0 0 0 0 0 0 0 0 0 0 0 0 0 0 0 0 0 0 0 0 0 0 0 0 0 0
0 0 0 0 0 0 0 0 0 0 0 0 0 0 0 0 0 0 0 0 0 0 0 0 0 0 0 0 0 0 0 0 0 0 0 0 0 0 0 0 0 0 0 0
0 0 0 0 0 0 0 0 0 0 0 0 0 0 0 0 0 0 0 0 0 0 0 0 0 0 0 0 0 0 0 0 0 0 0 0 0 0 0 0 0 0 0 0
0 0 0 0 0 0 0 0 0 0 0 0 0 0 0 0 0 0 0 0 0 0 0 0 0 0 0 0 0 0 0 0 0 0 0 0 0 0 0 0 0 0 0 0
0 0 0 0 0 0 0 0 0 0 0 0 0 0 0 0 0 0 0 0 0 0 0 0 0 0 0 0 0 0 0 0 0 0 0 0 0 0 0 0 0 0 0 0
0 0 0 0 0 0 0 0 0 0 0 0 0 0 0 0 0 0 0 0 0 0 0 0 0 0 0 0 0 0 0 0 0 0 0 0 0 0 0 0 0 0 0 0
0 0 0 0 0 0 0 0 0 0 0 0 0 0 0 0 0 0 0 0 0 0 0 0 0 0 0 0 0 0 0 0 0 0 0 0 0 0 0 0 0 0 0 0
0 0 0 0 0 0 0 0 0 0 0 0 0 0 0 0 0 0 0 0 0 0 0 0 0 0 0 0 0 0 0 0 0 0 0 0 0 0 0 0 0 0 0 0
0 0 0 0 0 0 0 0 0 0 0 0 0 0 0 0 0 0 0 0 0 0 0 0 0 0 0 0 0 0 0 0 0 0 0 0 0 0 0 0 0 0 0 0
0 0 0 0 0 0 0 0 0 0 0 0 0 0 0 0 0 0 0 0 0 0 0 0 0 0 0 0 0 0 0 0 0 0 0 0 0 0 0 0 0 0 0 0
0 0 0 0 0 0 0 0 0 0 0 0 0 0 0 0 0 0 0 0 0 0 0 0 0 0 0 0 0 0 0 0 0 0 0 0 0 0 0 0 0 0 0 0
0 0 0 0 0 0 0 0 0 0 0 0 0 0 0 0 0 0 0 0 0 0 0 0 0 0 0 0 0 0 0 0 0 0 0 0 0 0 0 0 0 0 0 0
0 0 0 0 0 0 0 0 0 0 0 0 0 0 0 0 0 0 0 0 0 0 0 0 0 0 0 0 0 0 0 0 0 0 0 0 0 0 0 0 0 0 0 0
0 0 0 0 0 0 0 0 0 0 0 0 0 0 0 0 0 0 0 0 0 0 0 0 0 0 0 0 0 0 0 0 0 0 0 0 0 0 0 0 0 0 0 0
0 0 0 0 0 0 0 0 0 0 0 0 0 0 0 0 0 0 0 0 0 0 0 0 0 0 0 0 0 0 0 0 0 0 0 0 0 0 0 0 0 0 0 0
0 0 0 0 0 0 0 0 0 0 0 0 0 0 0 0 0 0 0 0 0 0 0 0 0 0 0 0 0 0 0 0 0 0 0 0 0 0 0 0 0 0 0 0
0 0 0 0 0 0 0 0 0 0 0 0 0 0 0 0 0 0 0 0 0 0 0 0 0 0 0 0 0 0 0 0 0 0 0 0 0 0 0 0 0 0 0 0
0 0 0 0 0 0 0 0 0 0 0 0 0 0 0 0 0 0 0 0 0 0 0 0 0 0 0 0 0 0 0 0 0 0 0 0 0 0 0 0 0 0 0 0
0 0 0 0 0 0 0 0 0 0 0 0 0 0 0 0 0 0 0 0 0 0 0 0 0 0 0 0 0 0 0 0 0 0 0 0 0 0 0 0 0 0 0 0
0 0 0 0 0 0 0 0 0 0 0 0 0 0 0 0 0 0 0 0 0 0 0 0 0 0 0 0 0 0 0 0 0 0 0 0 0 0 0 0 0 0 0 0
0 0 0 0 0 0 0 0 0 0 0 0 0 0 0 0 0 0 0 0 0 0 0 0 0 0 0 0 0 0 0 0 0 0 0 0 0 0 0 0 0 0 0 0
0 0 0 0 0 0 0 0 0 0 0 0 0 0 0 0 0 0 0 0 0 0 0 0 0 0 0 0 0 0 0 0 0 0 0 0 0 0 0 0 0 0 0 0
0 0 0 0 0 0 0 0 0 0 0 0 0 0 0 0 0 0 0 0 0 0 0 0 0 0 0 0 0 0 0 0 0 0 0 0 0 0 0 0 0 0 0 0
Wind_Speed
6 6 5 7 8 8 8 9 8 7 6 7 10 11 9 8 7 7 7 7 8 8 7 6 6 5 6 6 5 5 6 6 6 5 4 4 3 3 3 2 2 2 2 3
3 4 4 6 9 10 10 8 8 5 6 7 5 5 5 7 8 8 8 8 9 8 7 7 7 7 6 6 6 5 6 7 6 5 5 5 4 4 3 3 3 3 3 4
4 5 2 7 11 12 9 8 10 10 10 4 4 7 8 8 8 8 8 8 8 8 8 8 7 7 7 7 6 6 6 6 5 6 6 6 5 4 4 4 3 4 4 4
2 2 6 11 7 10 12 10 10 8 8 11 10 8 7 7 8 7 7 7 7 6 6 5 5 5 5 4 4 5 5 5 5 6 6 6 5 5 5 4 4 4 5 5
3 3 8 10 7 8 10 10 10 11 10 9 6 5 1 5 7 7 7 6 6 6 5 4 4 4 4 3 3 3 4 5 5 6 6 6 6 7 5 4 5 5 5 5
4 3 7 10 9 4 6 6 7 12 12 10 10 5 6 5 6 6 5 5 5 4 4 3 3 4 5 3 2 2 4 5 4 4 5 6 7 6 5 5 6 5 6 6
5 5 10 11 6 5 6 10 5 11 12 13 11 9 7 7 6 6 6 6 6 6 4 3 3 5 5 3 0 3 2 2 2 2 4 5 5 4 4 5 5 5 6 6
6 5 12 8 3 7 9 4 4 8 10 11 8 7 9 9 8 7 6 6 7 7 5 3 3 6 5 2 2 1 1 1 1 2 2 2 3 4 4 4 4 5 5 6
11 12 10 6 9 7 5 4 5 7 8 11 10 9 9 8 8 7 6 6 6 8 6 4 4 5 5 2 2 2 3 3 3 3 3 3 3 4 4 3 3 4 4 5
5 9 8 7 6 4 6 6 6 7 10 12 11 10 10 9 8 7 6 6 6 8 7 5 4 5 4 3 3 4 4 4 4 4 5 5 3 3 3 3 3 3 3 4
5 8 6 6 7 7 5 5 6 7 8 13 14 11 10 10 9 7 6 5 6 8 8 6 5 5 5 4 5 5 5 4 4 4 4 4 4 3 3 3 3 2 3 3
7 8 6 9 10 8 7 8 10 10 8 9 12 13 11 10 8 8 8 7 8 8 8 6 6 5 5 5 5 5 4 4 3 3 4 4 4 5 6 6 9 9 7 6
9 8 7 9 9 9 11 11 10 10 12 11 9 11 12 9 8 9 9 9 10 9 8 7 6 5 4 4 5 5 4 3 3 4 4 4 4 5 5 7 10 12 14 15
8 6 7 8 9 10 11 11 9 8 8 10 10 10 11 9 10 11 10 9 9 10 8 7 6 5 3 4 5 5 4 5 4 3 3 4 4 4 4 4 6 7 9 14
15 12 11 10 8 7 7 8 9 9 9 9 10 13 13 13 12 11 9 10 10 9 7 7 6 4 3 4 5 5 4 3 3 3 3 3 4 4 4 5 5 5 5 8
14 12 9 8 9 9 8 10 12 13 12 11 12 12 12 13 12 11 10 10 11 9 7 7 6 3 3 5 5 4 3 7 5 3 3 3 4 4 4 4 4 5 5 6
10 10 8 8 10 11 12 13 15 15 14 14 14 14 14 14 12 11 9 8 9 8 7 7 5 4 4 4 4 3 3 4 7 4 3 3 3 3 3 3 3 3 3 5
10 11 10 10 11 13 13 11 11 13 14 13 15 16 16 16 14 12 10 9 9 7 5 5 5 5 4 4 3 2 2 2 2 2 2 2 2 2 2 2 3 3 3 3
12 11 10 11 11 12 13 13 13 14 14 16 17 16 14 13 13 12 11 10 10 7 4 5 9 6 4 3 4 2 2 2 2 2 2 2 3 2 2 2 2 2 2 2
16 13 11 9 9 8 10 11 13 14 15 16 16 15 13 13 13 13 11 8 6 6 6 6 6 5 3 2 4 2 2 2 1 1 2 2 2 2 2 2 3 3 3 3
17 15 11 7 4 5 8 12 15 15 15 16 17 16 14 13 13 12 10 7 5 6 7 9 5 4 3 2 3 1 1 1 1 1 1 1 2 2 3 3 3 3 3 3
15 13 10 6 2 3 5 8 12 14 14 13 13 14 14 13 11 9 8 7 7 9 6 4 4 5 4 3 1 0 0 1 1 1 1 2 2 2 3 3 4 4 4 4
12 10 7 5 3 4 6 7 10 12 13 14 14 14 13 11 9 9 6 4 6 10 7 4 6 7 5 2 1 1 1 1 2 2 2 2 2 3 3 4 4 4 4 4
11 10 6 3 3 6 6 5 7 7 9 9 10 11 12 9 5 4 6 11 12 10 5 6 9 8 4 2 1 1 2 2 2 2 2 2 2 3 3 3 4 4 4 6
9 8 4 1 3 3 5 6 8 8 8 7 7 8 7 7 7 6 6 8 12 10 4 6 8 6 3 2 2 2 2 2 2 1 1 2 2 3 3 3 4 4 5 5
7 6 4 3 3 4 5 5 5 5 6 6 5 5 5 5 7 7 6 7 8 8 5 3 2 2 2 2 2 2 2 1 1 1 2 2 3 3 3 4 6 5 5 6
7 5 2 0 1 3 4 5 6 6 6 7 5 4 5 6 6 6 7 5 5 4 3 3 3 2 2 2 2 1 1 0 0 1 1 2 2 3 4 5 5 5 6 7
Wind_Direction
225 237 206 215 216 195 183 185 189 225 217 223 210 205 207 203 196 190 196 197 196 200 207 211 213 214 210 208 204 196 193 204 217 216 210 206 211 223 230 241 247 256 270 282
281 266 232 238 228 210 207 197 206 221 247 242 205 179 189 194 187 192 200 202 202 203 203 208 211 212 208 209 209 197 199 213 217 210 207 210 215 220 230 247 260 264 266 270
266 291 341 264 222 205 209 206 188 210 223 182 163 180 186 187 185 190 194 194 194 196 201 207 209 208 207 211 207 200 209 219 217 209 212 219 217 215 231 243 248 258 261 259
225 339 240 244 232 197 204 216 197 195 190 179 184 190 187 178 173 183 184 183 187 190 197 206 205 205 207 203 194 199 213 222 221 213 219 225 223 229 236 235 238 244 251 252
161 231 275 286 266 191 187 232 206 187 184 183 151 107 208 196 170 173 175 174 180 182 181 181 185 184 168 178 185 198 220 227 225 214 218 224 228 235 234 231 239 238 242 245
147 191 246 254 265 199 131 251 217 178 173 164 135 148 228 204 159 149 146 150 152 149 136 139 158 139 128 144 159 228 238 234 227 213 215 227 234 238 234 227 238 243 248 244
173 213 260 256 267 124 150 235 217 178 170 164 174 188 184 160 150 145 141 140 133 122 115 135 139 122 112 98 11 272 264 243 240 237 237 241 247 247 244 243 248 250 256 259
163 199 253 252 175 185 211 230 190 179 174 168 171 147 142 147 144 140 134 130 125 113 103 90 105 108 98 70 316 331 28 29 324 295 285 290 272 275 268 258 260 263 264 274
187 211 230 222 208 218 185 184 185 169 167 149 144 149 152 151 149 146 141 135 125 118 104 77 72 93 94 26 3 45 49 21 348 340 330 324 310 301 299 284 267 270 266 271
254 267 260 245 227 205 187 186 177 161 153 149 153 156 155 153 151 148 143 139 131 120 109 91 70 72 71 38 45 62 51 25 8 1 348 342 334 321 314 305 295 287 281 276
266 281 306 283 237 211 185 158 149 153 160 162 155 158 161 159 157 151 142 134 128 124 119 110 91 73 55 47 61 65 53 32 17 12 1 350 343 330 323 303 307 295 289 276
238 247 226 246 242 214 186 182 172 162 162 168 164 162 160 159 156 148 141 133 126 122 120 115 98 77 52 47 64 69 52 29 17 8 1 357 352 347 350 358 3 11 5 352
230 250 232 247 253 217 201 195 181 172 166 169 167 160 155 151 149 142 137 136 134 131 126 118 101 79 54 51 64 68 59 36 20 15 11 6 7 9 357 354 10 21 19 15
258 262 265 254 244 224 206 193 173 163 162 161 156 150 147 140 144 144 143 140 132 127 124 117 103 85 60 62 66 61 51 42 42 25 18 15 13 11 13 13 9 4 4 10
264 255 246 248 246 228 197 165 158 162 156 153 153 153 152 150 150 146 139 133 127 123 122 117 107 94 70 72 70 59 48 39 40 30 25 22 18 20 22 23 20 8 5 7
263 261 249 233 221 204 180 173 174 176 168 161 161 159 153 144 139 136 137 137 133 133 132 123 117 114 93 81 73 58 43 49 60 47 30 25 23 25 23 22 21 19 17 8
273 267 252 234 217 202 193 189 186 180 172 165 161 149 140 137 135 137 137 134 132 134 135 130 129 118 99 91 86 72 50 37 45 46 30 25 25 22 19 22 20 16 8 9
275 256 235 218 211 208 206 195 179 170 166 159 149 147 149 150 150 147 142 133 123 120 128 135 133 116 98 93 94 81 67 46 37 34 20 17 15 10 12 14 9 7 347 353
314 297 272 241 223 210 201 188 177 168 157 152 154 155 154 150 147 145 142 139 138 140 156 148 133 118 107 96 100 81 65 44 28 16 10 6 10 358 353 346 340 335 330 335
331 322 307 274 236 207 192 177 163 158 157 154 149 146 147 149 148 145 142 145 157 160 159 148 132 127 124 103 96 87 62 41 15 351 352 353 340 331 328 322 317 314 311 306
333 329 326 313 258 192 169 160 156 156 155 153 153 153 150 148 147 145 142 145 169 157 152 147 140 146 150 135 92 85 51 13 347 326 325 318 314 315 314 310 307 303 300 299
333 331 331 338 26 113 132 140 144 143 143 144 143 142 142 144 144 141 147 154 163 159 147 144 153 171 170 141 122 89 346 313 295 290 292 288 289 296 300 304 302 302 301 299
331 330 336 355 43 83 91 110 129 137 140 143 146 147 147 147 148 146 154 163 155 159 151 162 181 187 179 155 177 236 277 284 284 283 278 275 278 284 291 299 299 300 300 299
328 328 330 4 74 95 97 99 104 113 120 126 134 139 138 134 133 145 145 160 166 162 162 185 196 206 205 184 212 241 258 269 275 277 276 280 287 292 294 297 299 299 298 301
322 318 308 114 118 122 121 111 103 105 109 114 123 129 133 138 142 149 146 155 166 162 171 200 210 218 205 197 223 238 247 253 253 254 269 291 296 297 295 294 294 294 295 294
315 302 276 228 171 149 139 127 122 125 124 122 122 127 126 127 133 139 144 156 167 172 177 198 216 220 193 207 220 226 233 274 322 339 311 306 303 303 301 301 301 298 296 295
312 304 283 169 126 139 138 137 138 142 142 140 138 142 139 137 140 147 151 156 164 171 178 186 188 186 183 184 186 186 177 198 276 300 309 307 302 300 301 303 301 299 299 299